DAL1202 KSLC-KSAN

Flight info

Callsign DAL1202
Flight time 1h 23m
Altitude 34000
Route WINEN LAKRR Q73 LVELL LUCKI1
Aircraft A321/M-SDE3FGHIRWY/LB1

Departure

Time 2026-05-08 05:27
Airport Salt Lake City International Airport (KSLC)

Arrival

Time 2026-05-08 06:51
Airport San Diego International Airport (KSAN)
Time Latitude Longitude Altitude Speed Heading
2026-05-08 04:58 40.78657 -111.97978 4231 ft 0 kts 175°
2026-05-08 05:18 40.78673 -111.97980 4230 ft 4 kts 175°
2026-05-08 05:18 40.78695 -111.97982 4230 ft 3 kts 175°
2026-05-08 05:18 40.78718 -111.97990 4230 ft 4 kts 134°
2026-05-08 05:19 40.78733 -111.98013 4230 ft 4 kts 130°
2026-05-08 05:19 40.78737 -111.98019 4230 ft 0 kts 130°
2026-05-08 05:21 40.78736 -111.98018 4230 ft 0 kts 128°
2026-05-08 05:21 40.78742 -111.97953 4230 ft 17 kts 85°
2026-05-08 05:22 40.78751 -111.97823 4231 ft 12 kts 85°
2026-05-08 05:22 40.78752 -111.97718 4231 ft 11 kts 109°
2026-05-08 05:22 40.78697 -111.97676 4232 ft 9 kts 172°
2026-05-08 05:22 40.78637 -111.97669 4231 ft 9 kts 175°
2026-05-08 05:23 40.78523 -111.97655 4231 ft 24 kts 175°
2026-05-08 05:23 40.78358 -111.97636 4231 ft 23 kts 175°
2026-05-08 05:23 40.78200 -111.97618 4231 ft 22 kts 175°
2026-05-08 05:23 40.78049 -111.97600 4240 ft 21 kts 175°
2026-05-08 05:24 40.77909 -111.97561 4253 ft 20 kts 152°
2026-05-08 05:24 40.77781 -111.97519 4253 ft 18 kts 175°
2026-05-08 05:24 40.77658 -111.97505 4254 ft 17 kts 175°
2026-05-08 05:24 40.77543 -111.97491 4253 ft 16 kts 174°
2026-05-08 05:25 40.77480 -111.97481 4253 ft 3 kts 165°
2026-05-08 05:25 40.77469 -111.97475 4254 ft 0 kts 151°
2026-05-08 05:25 40.77469 -111.97474 4254 ft 0 kts 151°
2026-05-08 05:26 40.77453 -111.97429 4253 ft 8 kts 92°
2026-05-08 05:26 40.77476 -111.97370 4253 ft 7 kts 47°
2026-05-08 05:26 40.77531 -111.97326 4253 ft 9 kts
2026-05-08 05:26 40.77545 -111.97327 4253 ft 0 kts 355°
2026-05-08 05:27 40.77766 -111.97352 4252 ft 71 kts 354°
2026-05-08 05:27 40.78494 -111.97444 4231 ft 136 kts 354°
2026-05-08 05:27 40.79614 -111.97586 4231 ft 185 kts 354°
2026-05-08 05:27 40.80926 -111.97742 4865 ft 184 kts 354°
2026-05-08 05:28 40.82140 -111.98213 5592 ft 185 kts 324°
2026-05-08 05:28 40.82907 -111.99574 6069 ft 194 kts 288°
2026-05-08 05:28 40.83104 -112.01408 6221 ft 210 kts 272°
2026-05-08 05:28 40.83100 -112.03399 6356 ft 225 kts 261°
2026-05-08 05:29 40.82567 -112.05424 6485 ft 243 kts 246°
2026-05-08 05:29 40.81868 -112.07579 6632 ft 268 kts 246°
2026-05-08 05:29 40.81108 -112.09893 7100 ft 279 kts 247°
2026-05-08 05:29 40.80329 -112.12256 7789 ft 282 kts 248°
2026-05-08 05:30 40.79547 -112.14634 8586 ft 284 kts 249°
2026-05-08 05:30 40.78758 -112.17031 9412 ft 285 kts 249°
2026-05-08 05:30 40.77964 -112.19441 10197 ft 288 kts 250°
2026-05-08 05:30 40.77141 -112.21921 10466 ft 311 kts 247°
2026-05-08 05:31 40.75891 -112.24440 10719 ft 337 kts 232°
2026-05-08 05:31 40.74115 -112.26480 11314 ft 350 kts 217°
2026-05-08 05:31 40.71900 -112.27882 12070 ft 359 kts 201°
2026-05-08 05:31 40.69429 -112.28551 12840 ft 365 kts 193°
2026-05-08 05:32 40.66912 -112.29064 13623 ft 368 kts 193°
2026-05-08 05:32 40.64367 -112.29573 14317 ft 371 kts 193°
2026-05-08 05:32 40.61802 -112.30087 14961 ft 376 kts 193°
2026-05-08 05:32 40.59199 -112.30615 15584 ft 380 kts 193°
2026-05-08 05:33 40.56575 -112.31188 16198 ft 384 kts 197°
2026-05-08 05:33 40.54007 -112.32166 16802 ft 386 kts 201°
2026-05-08 05:33 40.51432 -112.33228 17400 ft 391 kts 201°
2026-05-08 05:33 40.48819 -112.34304 17996 ft 396 kts 201°
2026-05-08 05:34 40.46178 -112.35390 18534 ft 400 kts 201°
2026-05-08 05:34 40.43507 -112.36486 19034 ft 405 kts 201°
2026-05-08 05:34 40.40805 -112.37590 19537 ft 408 kts 200°
2026-05-08 05:34 40.38077 -112.38699 20025 ft 412 kts 200°
2026-05-08 05:35 40.35326 -112.39818 20501 ft 416 kts 200°
2026-05-08 05:35 40.32545 -112.40950 20978 ft 420 kts 200°
2026-05-08 05:35 40.29744 -112.42090 21468 ft 424 kts 200°
2026-05-08 05:35 40.26915 -112.43240 21952 ft 427 kts 200°
2026-05-08 05:36 40.24063 -112.44396 22427 ft 431 kts 199°
2026-05-08 05:36 40.21185 -112.45558 22908 ft 434 kts 199°
2026-05-08 05:36 40.18318 -112.46833 23356 ft 436 kts 205°
2026-05-08 05:36 40.15605 -112.48612 23782 ft 437 kts 211°
2026-05-08 05:37 40.12927 -112.50508 24176 ft 439 kts 211°
2026-05-08 05:37 40.10230 -112.52412 24572 ft 442 kts 211°
2026-05-08 05:37 40.07511 -112.54327 24968 ft 445 kts 211°
2026-05-08 05:37 40.04774 -112.56245 25365 ft 448 kts 211°
2026-05-08 05:38 40.02022 -112.58172 25759 ft 451 kts 211°
2026-05-08 05:38 39.99250 -112.60114 26137 ft 453 kts 211°
2026-05-08 05:38 39.96465 -112.62069 26514 ft 456 kts 212°
2026-05-08 05:38 39.93659 -112.64037 26875 ft 459 kts 212°
2026-05-08 05:39 39.90840 -112.66015 27233 ft 462 kts 212°
2026-05-08 05:39 39.88001 -112.68004 27586 ft 465 kts 212°
2026-05-08 05:39 39.85143 -112.70000 27929 ft 468 kts 212°
2026-05-08 05:39 39.82268 -112.72003 28274 ft 470 kts 212°
2026-05-08 05:40 39.79368 -112.74017 28613 ft 473 kts 212°
2026-05-08 05:40 39.76457 -112.76039 28950 ft 476 kts 212°
2026-05-08 05:40 39.73535 -112.78069 29268 ft 478 kts 212°
2026-05-08 05:40 39.70591 -112.80116 29559 ft 481 kts 212°
2026-05-08 05:41 39.67561 -112.82009 29858 ft 487 kts 204°
2026-05-08 05:41 39.64328 -112.83399 30114 ft 492 kts 200°
2026-05-08 05:41 39.61046 -112.84699 30408 ft 494 kts 200°
2026-05-08 05:41 39.57759 -112.86001 30805 ft 493 kts 200°
2026-05-08 05:42 39.54483 -112.87302 31222 ft 492 kts 200°
2026-05-08 05:42 39.51207 -112.88608 31636 ft 492 kts 200°
2026-05-08 05:42 39.47941 -112.89912 32052 ft 491 kts 200°
2026-05-08 05:42 39.44681 -112.91213 32456 ft 490 kts 200°
2026-05-08 05:43 39.41416 -112.92509 32857 ft 490 kts 200°
2026-05-08 05:43 39.38161 -112.93800 33256 ft 490 kts 200°
2026-05-08 05:43 39.34905 -112.95088 33650 ft 489 kts 200°
2026-05-08 05:43 39.31649 -112.96374 33884 ft 490 kts 200°
2026-05-08 05:44 39.28408 -112.97649 33930 ft 484 kts 200°
2026-05-08 05:44 39.21998 -113.00176 33914 ft 481 kts 200°
2026-05-08 05:45 39.15651 -113.02686 33926 ft 480 kts 200°
2026-05-08 05:45 39.09264 -113.05208 33923 ft 480 kts 200°
2026-05-08 05:46 39.02883 -113.07717 33926 ft 480 kts 200°
2026-05-08 05:46 38.96491 -113.10222 33915 ft 480 kts 200°
2026-05-08 05:47 38.90112 -113.12713 33925 ft 478 kts 200°
2026-05-08 05:47 38.83749 -113.15193 33933 ft 477 kts 200°
2026-05-08 05:48 38.77405 -113.17667 33935 ft 476 kts 200°
2026-05-08 05:48 38.71068 -113.20126 33933 ft 475 kts 199°
2026-05-08 05:49 38.64746 -113.22580 33977 ft 474 kts 200°
2026-05-08 05:49 38.58432 -113.25029 33999 ft 474 kts 199°
2026-05-08 05:50 38.52129 -113.27466 34001 ft 473 kts 199°
2026-05-08 05:50 38.45827 -113.29902 33999 ft 473 kts 199°
2026-05-08 05:51 38.39527 -113.32329 33982 ft 473 kts 199°
2026-05-08 05:51 38.33224 -113.34751 33965 ft 473 kts 199°
2026-05-08 05:52 38.26921 -113.37172 33946 ft 473 kts 199°
2026-05-08 05:52 38.20623 -113.39590 33921 ft 473 kts 199°
2026-05-08 05:53 38.14367 -113.41983 33919 ft 473 kts 199°
2026-05-08 05:53 38.08071 -113.44390 33913 ft 472 kts 199°
2026-05-08 05:54 38.01776 -113.46791 33914 ft 472 kts 199°
2026-05-08 05:54 37.95477 -113.49178 33913 ft 473 kts 199°
2026-05-08 05:55 37.89196 -113.51659 33911 ft 472 kts 201°
2026-05-08 05:55 37.82991 -113.54397 33909 ft 472 kts 202°
2026-05-08 05:56 37.76802 -113.57193 33898 ft 472 kts 201°
2026-05-08 05:56 37.70589 -113.59923 33905 ft 473 kts 201°
2026-05-08 05:57 37.64357 -113.62603 33903 ft 473 kts 201°
2026-05-08 05:57 37.58123 -113.65273 33906 ft 473 kts 201°
2026-05-08 05:58 37.51932 -113.67947 33905 ft 473 kts 201°
2026-05-08 05:58 37.45705 -113.70638 33905 ft 473 kts 201°
2026-05-08 05:59 37.39474 -113.73326 33906 ft 473 kts 201°
2026-05-08 05:59 37.33246 -113.75999 33886 ft 473 kts 200°
2026-05-08 06:00 37.27018 -113.78664 33893 ft 472 kts 200°
2026-05-08 06:00 37.20800 -113.81325 33918 ft 472 kts 200°
2026-05-08 06:01 37.14589 -113.83988 33924 ft 472 kts 200°
2026-05-08 06:01 37.08373 -113.86641 33924 ft 472 kts 200°
2026-05-08 06:02 37.02155 -113.89281 33906 ft 472 kts 200°
2026-05-08 06:02 36.95944 -113.91912 33883 ft 471 kts 200°
2026-05-08 06:03 36.89730 -113.94553 33869 ft 472 kts 200°
2026-05-08 06:03 36.83518 -113.97190 33860 ft 472 kts 200°
2026-05-08 06:04 36.77300 -113.99814 33856 ft 472 kts 200°
2026-05-08 06:04 36.71084 -114.02439 33840 ft 472 kts 200°
2026-05-08 06:05 36.64864 -114.05057 33838 ft 472 kts 200°
2026-05-08 06:05 36.58648 -114.07675 33820 ft 472 kts 200°
2026-05-08 06:06 36.52436 -114.10285 33832 ft 471 kts 200°
2026-05-08 06:06 36.46229 -114.12881 33834 ft 470 kts 200°
2026-05-08 06:07 36.40033 -114.15478 33819 ft 470 kts 200°
2026-05-08 06:07 36.33842 -114.18063 33817 ft 469 kts 199°
2026-05-08 06:08 36.27653 -114.20640 33819 ft 469 kts 199°
2026-05-08 06:08 36.21479 -114.23216 33817 ft 468 kts 200°
2026-05-08 06:09 36.15343 -114.25767 33819 ft 468 kts 199°
2026-05-08 06:09 36.10308 -114.28302 33811 ft 465 kts 211°
2026-05-08 06:09 36.06808 -114.31315 33812 ft 462 kts 224°
2026-05-08 06:10 36.05244 -114.33168 33811 ft 460 kts 230°
2026-05-08 06:10 36.00996 -114.39083 33793 ft 461 kts 231°
2026-05-08 06:11 35.96726 -114.44986 33813 ft 461 kts 230°
2026-05-08 06:11 35.92450 -114.50885 33839 ft 461 kts 230°
2026-05-08 06:12 35.88200 -114.56741 33861 ft 461 kts 230°
2026-05-08 06:12 35.83891 -114.62668 33825 ft 461 kts 230°
2026-05-08 06:13 35.79638 -114.68507 33873 ft 461 kts 230°
2026-05-08 06:13 35.75354 -114.74388 33876 ft 461 kts 230°
2026-05-08 06:14 35.71070 -114.80260 33912 ft 461 kts 230°
2026-05-08 06:14 35.66778 -114.86129 33915 ft 461 kts 230°
2026-05-08 06:15 35.62483 -114.91995 33911 ft 461 kts 230°
2026-05-08 06:15 35.58194 -114.97863 33915 ft 462 kts 230°
2026-05-08 06:16 35.53900 -115.03721 33932 ft 462 kts 228°
2026-05-08 06:16 35.48789 -115.08484 33939 ft 464 kts 208°
2026-05-08 06:17 35.39695 -115.12613 33930 ft 465 kts 199°
2026-05-08 06:17 35.33570 -115.15173 33948 ft 465 kts 199°
2026-05-08 06:18 35.27444 -115.17728 33950 ft 465 kts 199°
2026-05-08 06:18 35.21313 -115.20278 33941 ft 465 kts 199°
2026-05-08 06:19 35.15183 -115.22832 33924 ft 466 kts 199°
2026-05-08 06:19 35.08887 -115.24712 33923 ft 466 kts 193°
2026-05-08 06:20 35.02551 -115.26422 33912 ft 466 kts 193°
2026-05-08 06:20 34.96256 -115.28136 33915 ft 467 kts 193°
2026-05-08 06:21 34.89913 -115.29855 33909 ft 467 kts 193°
2026-05-08 06:21 34.83556 -115.31576 33895 ft 468 kts 193°
2026-05-08 06:22 34.77231 -115.33426 33886 ft 467 kts 199°
2026-05-08 06:22 34.71064 -115.35947 33879 ft 467 kts 199°
2026-05-08 06:23 34.64913 -115.38462 33877 ft 466 kts 199°
2026-05-08 06:23 34.58765 -115.40964 33886 ft 465 kts 199°
2026-05-08 06:24 34.52628 -115.43454 33872 ft 465 kts 199°
2026-05-08 06:24 34.46495 -115.45943 33869 ft 465 kts 199°
2026-05-08 06:25 34.40364 -115.48423 33873 ft 464 kts 199°
2026-05-08 06:25 34.34470 -115.51543 33865 ft 462 kts 213°
2026-05-08 06:26 34.29000 -115.55618 33870 ft 462 kts 212°
2026-05-08 06:26 34.23503 -115.59663 33874 ft 462 kts 212°
2026-05-08 06:27 34.17721 -115.63043 33875 ft 463 kts 202°
2026-05-08 06:27 34.11704 -115.65877 33897 ft 464 kts 201°
2026-05-08 06:28 34.05689 -115.68723 33893 ft 465 kts 201°
2026-05-08 06:28 33.99660 -115.71565 33809 ft 466 kts 201°
2026-05-08 06:29 33.96639 -115.72981 33544 ft 465 kts 201°
2026-05-08 06:29 33.93622 -115.74396 33279 ft 466 kts 201°
2026-05-08 06:29 33.90606 -115.75818 33009 ft 466 kts 201°
2026-05-08 06:29 33.87593 -115.77274 32718 ft 465 kts 202°
2026-05-08 06:30 33.84608 -115.78745 32133 ft 463 kts 202°
2026-05-08 06:30 33.81639 -115.80222 31568 ft 460 kts 202°
2026-05-08 06:30 33.78730 -115.81669 30997 ft 457 kts 202°
2026-05-08 06:30 33.75792 -115.83119 30432 ft 455 kts 202°
2026-05-08 06:31 33.72861 -115.84527 29857 ft 453 kts 201°
2026-05-08 06:31 33.69936 -115.85898 29254 ft 449 kts 201°
2026-05-08 06:31 33.67040 -115.87238 28711 ft 444 kts 201°
2026-05-08 06:31 33.64171 -115.88558 28176 ft 440 kts 201°
2026-05-08 06:32 33.61324 -115.89868 27633 ft 436 kts 201°
2026-05-08 06:32 33.58510 -115.91169 27114 ft 432 kts 201°
2026-05-08 06:32 33.55723 -115.92475 26594 ft 427 kts 203°
2026-05-08 06:32 33.53116 -115.94130 26108 ft 422 kts 214°
2026-05-08 06:33 33.50838 -115.96300 25612 ft 417 kts 225°
2026-05-08 06:33 33.48940 -115.98891 25106 ft 412 kts 236°
2026-05-08 06:33 33.47313 -116.01700 24608 ft 409 kts 237°
2026-05-08 06:33 33.45697 -116.04494 24110 ft 407 kts 237°
2026-05-08 06:34 33.44088 -116.07264 23610 ft 404 kts 237°
2026-05-08 06:34 33.42486 -116.10013 23073 ft 401 kts 237°
2026-05-08 06:34 33.40894 -116.12738 22576 ft 397 kts 236°
2026-05-08 06:34 33.39318 -116.15438 22110 ft 394 kts 236°
2026-05-08 06:35 33.37758 -116.18110 21636 ft 390 kts 236°
2026-05-08 06:35 33.36211 -116.20763 21158 ft 387 kts 236°
2026-05-08 06:35 33.34571 -116.23307 20680 ft 385 kts 228°
2026-05-08 06:35 33.32575 -116.25430 20243 ft 384 kts 216°
2026-05-08 06:36 33.30280 -116.27044 19799 ft 384 kts 206°
2026-05-08 06:36 33.27878 -116.28445 19337 ft 384 kts 206°
2026-05-08 06:36 33.25482 -116.29842 18869 ft 383 kts 206°
2026-05-08 06:36 33.23095 -116.31236 18405 ft 381 kts 206°
2026-05-08 06:37 33.20719 -116.32626 17906 ft 379 kts 206°
2026-05-08 06:37 33.18362 -116.34010 17436 ft 376 kts 206°
2026-05-08 06:37 33.16023 -116.35385 16987 ft 373 kts 206°
2026-05-08 06:37 33.13734 -116.36732 16534 ft 370 kts 206°
2026-05-08 06:38 33.11430 -116.38084 16088 ft 368 kts 205°
2026-05-08 06:38 33.09129 -116.39429 15592 ft 369 kts 205°
2026-05-08 06:38 33.06827 -116.40766 15137 ft 367 kts 205°
2026-05-08 06:38 33.04542 -116.42094 14687 ft 364 kts 204°
2026-05-08 06:39 33.02273 -116.43413 14250 ft 362 kts 204°
2026-05-08 06:39 33.00098 -116.44912 13811 ft 361 kts 215°
2026-05-08 06:39 32.98164 -116.46814 13360 ft 359 kts 220°
2026-05-08 06:39 32.96278 -116.48726 12997 ft 355 kts 219°
2026-05-08 06:40 32.94408 -116.50619 12383 ft 349 kts 220°
2026-05-08 06:40 32.92565 -116.52481 11644 ft 346 kts 220°
2026-05-08 06:40 32.90730 -116.54332 11112 ft 346 kts 220°
2026-05-08 06:40 32.88900 -116.56175 10655 ft 344 kts 220°
2026-05-08 06:41 32.87098 -116.57987 10388 ft 330 kts 220°
2026-05-08 06:41 32.85396 -116.59698 10084 ft 312 kts 220°
2026-05-08 06:41 32.83747 -116.61357 9628 ft 309 kts 220°
2026-05-08 06:41 32.82124 -116.62992 9490 ft 304 kts 221°
2026-05-08 06:42 32.80515 -116.64614 9173 ft 302 kts 221°
2026-05-08 06:42 32.78919 -116.66220 8801 ft 299 kts 221°
2026-05-08 06:42 32.77447 -116.67938 8427 ft 295 kts 233°
2026-05-08 06:42 32.76353 -116.69968 8065 ft 290 kts 243°
2026-05-08 06:43 32.75374 -116.72057 7700 ft 288 kts 243°
2026-05-08 06:43 32.74395 -116.74127 7337 ft 286 kts 243°
2026-05-08 06:43 32.73426 -116.76174 6983 ft 283 kts 244°
2026-05-08 06:43 32.72463 -116.78203 6626 ft 281 kts 244°
2026-05-08 06:44 32.71504 -116.80217 6267 ft 278 kts 244°
2026-05-08 06:44 32.70613 -116.82233 5910 ft 272 kts 252°
2026-05-08 06:44 32.69968 -116.84316 5611 ft 266 kts 253°
2026-05-08 06:44 32.69341 -116.86334 5317 ft 262 kts 253°
2026-05-08 06:45 32.68715 -116.88337 5019 ft 253 kts 253°
2026-05-08 06:45 32.68135 -116.90238 4749 ft 237 kts 254°
2026-05-08 06:45 32.67609 -116.92005 4492 ft 217 kts 255°
2026-05-08 06:45 32.67357 -116.93634 4276 ft 185 kts 272°
2026-05-08 06:46 32.67512 -116.94998 4063 ft 154 kts 288°
2026-05-08 06:46 32.67815 -116.96206 3885 ft 159 kts 288°
2026-05-08 06:46 32.68141 -116.97530 3701 ft 172 kts 288°
2026-05-08 06:46 32.68476 -116.98904 3498 ft 175 kts 287°
2026-05-08 06:47 32.68813 -117.00296 3291 ft 176 kts 287°
2026-05-08 06:47 32.69155 -117.01696 3092 ft 175 kts 287°
2026-05-08 06:47 32.69475 -117.03002 3005 ft 158 kts 287°
2026-05-08 06:47 32.69777 -117.04231 2982 ft 153 kts 287°
2026-05-08 06:48 32.70072 -117.05442 2949 ft 154 kts 286°
2026-05-08 06:48 32.70368 -117.06658 2574 ft 152 kts 286°
2026-05-08 06:48 32.70669 -117.07858 2191 ft 151 kts 286°
2026-05-08 06:48 32.70975 -117.09045 1873 ft 150 kts 286°
2026-05-08 06:49 32.71281 -117.10226 1605 ft 149 kts 286°
2026-05-08 06:49 32.71563 -117.11412 1374 ft 149 kts 283°
2026-05-08 06:49 32.71821 -117.12596 1151 ft 148 kts 284°
2026-05-08 06:49 32.72101 -117.13766 913 ft 147 kts 285°
2026-05-08 06:50 32.72388 -117.14924 671 ft 146 kts 285°
2026-05-08 06:50 32.72671 -117.16078 474 ft 146 kts 284°
2026-05-08 06:50 32.72938 -117.17230 232 ft 144 kts 284°
2026-05-08 06:50 32.73222 -117.18369 33 ft 141 kts 285°
2026-05-08 06:51 32.73448 -117.19318 24 ft 85 kts 283°
2026-05-08 06:51 32.73525 -117.19666 29 ft 18 kts 286°
2026-05-08 06:51 32.73519 -117.19804 29 ft 17 kts 249°
2026-05-08 06:51 32.73491 -117.19943 23 ft 17 kts 281°
2026-05-08 06:52 32.73521 -117.20077 25 ft 17 kts 286°
2026-05-08 06:52 32.73546 -117.20204 23 ft 13 kts 256°
2026-05-08 06:52 32.73511 -117.20295 23 ft 12 kts 279°
2026-05-08 06:52 32.73532 -117.20389 23 ft 12 kts 285°
2026-05-08 06:53 32.73533 -117.20477 23 ft 7 kts 245°
2026-05-08 06:53 32.73496 -117.20496 23 ft 5 kts 164°
2026-05-08 06:53 32.73476 -117.20471 23 ft 4 kts 139°
2026-05-08 06:53 32.73462 -117.20457 23 ft 1 kts 140°
2026-05-08 06:54 32.73459 -117.20455 23 ft 0 kts 140°